Showing default

ICEYE-X6, 46497

Orbit data source: Space-Track

ICEYE-X6, 46497 is a payload satellite owned by ICEYE (FI) in SSO that was launched on Mon, 28 Sep 2020 UTC via a SOYUZ-2-1B launch vehicle from the Plesetsk Missile And Space Complex (PKMTR). Payload-class satellites include a variety of spacecraft equipped with specific instruments for various scientific and technological missions. These include communications satellites like Starlink; space stations such as the ISS; scientific satellites like the Hubble; Earth observation satellites from companies like Planet Labs, Umbra, and HawkEye 360; GPS; miniature CubeSats for education and research; and military/defense satellites.

Loading next visibility...
Identifier
46497, 2020-068M
Orbit
SSO
Last TLE update
9 hours ago
Origin
Manufacturer
ICEYE
Mission
Operational Commercial Radar Imaging
Bus & Motor
ICEYE, Unknown motor
Mass
80 kg wet, 80 kg dry
Launch date (UTC)
2020-09-28 (5 years ago)
Launch vehicle
SOYUZ-2-1B
Launch site
Plesetsk Missile And Space Complex (PKMTR)
Object type
Payload
Rocket body
Debris
Shape & HBR
Box + 1 Pan, 3.25 m
Radar Cross Section
1.837 m², Medium (>0.1 m² and < 1m²)

Expand to show TLE details & history

TLE from 9 hours ago
0 ICEYE-X6
1 46497U 20068M   25182.86673186  .00002329  00000-0  18781-3 0  9993
2 46497  98.0656 156.3342 0002679 169.7688 190.3590 15.00945029260616
Epoch: 2025-07-01T20:48Z
TLE epoch observation values (Epoch: 2025-07-01T20:48:05.632Z)
Latitude
-0.00002°
Longitude
-75.8453°
Altitude
568.856 km
Speed
7.576 km/s
True Right ascension
10h 25m 20s
True Declination
0° 00' 00"
Sunlit
Object was in daylight at epoch
Visualization orbit readout
Latitude
-21.43698°
Longitude
101.36704°
Altitude
570.597 km
Speed
7.575 km/s
Apparent Right ascension
01h 06m 13s
Apparent Declination
-43° 53' 18"
Sunlit
Object is in full shadow
Visualization observer readout
Local Sidereal Time
17:23:22
Azimuth
117.017° SE
Elevation
-43.208°
Doppler factor
1
Orbital elements
Apogee altitude
562.86 km
Perigee altitude
559.142 km
Semi-major axis
6,939.138 km
Eccentricity
0.00027
Inclination
98.0656°
RAAN
156.3342°
Arg. of periapsis
169.7688°
True anomaly
Unknown
Mean anomaly
190.359°
Eccentric anomaly
Unknown
Mean motion
3.75478 °/min
Orbital period
95.88 mins
BSTAR
0.00018781
Loading maneuver chart data...
Loading SW <> Apogee altitude chart data...
Loading historical data...
Loading historical data...
Loading historical data...
Loading historical data...
Loading historical data...
Loading historical data...
Loading historical data...

ICEYE-X6 Visibility forecast

Observer location: undefined°, undefined°

Span
Click to sort rows by Start time (UTC) header in descending order
Start Az.
Max El. time (UTC)
Max El. Az.
Max El.
End time (UTC)
End Az.
4 mins2025-07-02 10:11:45.687Z59.912° ENE2025-07-02 10:13:45.687Z94.541° ESE16.926°2025-07-02 10:15:45.687Z128.948° SE
5 mins2025-07-02 11:46:45.687Z337.495° NNW2025-07-02 11:48:45.687Z289.179° WNW28.044°2025-07-02 11:51:45.687Z229.924° WSW
6 mins2025-07-02 22:31:45.687Z184.515° SSW2025-07-02 22:34:45.687Z267.527° W39.525°2025-07-02 22:37:45.687Z335.174° NNW
|